Regional Weather Roundup
Issued by NWS

Home | Current Version | Previous Version | Text Only | Print | Product List | Glossary On
Versions: 1 2 3 4 5 6 7 8 9 10 11 12 13 14 15 16 17 18 19 20 21 22 23 24 25 26 27 28 29 30 31 32 33 34 35 36 37 38 39 40 41 42 43 44 45 46 47 48 49 50
007
ASUS43 KLSX 221057
RWRMO

WEATHER SUMMARY FOR MISSOURI
NATIONAL WEATHER SERVICE SPRINGFIELD MO
500 AM CST WED NOV 22 2017

NOTE: "FAIR" INDICATES FEW OR NO CLOUDS BELOW 12,000 FEET WITH NO
       SIGNIFICANT WEATHER AND/OR OBSTRUCTIONS TO VISIBILITY.
       CURRENT SKY AND/OR WEATHER CONDITIONS ARE NOT AVAILABLE FOR
       CHILLICOTHE AND FARMINGTON.

MOZ001>031-035>038-043-044-053-054-221200-
...NORTHERN AND WESTERN MISSOURI...

CITY           SKY/WX    TMP DP  RH WIND       PRES   REMARKS
KANSAS CTY INT CLOUDY    16  12  84 CALM      30.41S
LEE`S SUMMIT   CLOUDY    22  14  71 N6        30.41F WCI  14
ST JOSEPH      CLOUDY    17  12  80 CALM      30.43S
CHILLICOTHE      N/A     19  13  77 CALM      30.44R

$$
MOZ066>068-077>081-088>096-101>105-221200-
...SOUTHWEST MISSOURI...

CITY           SKY/WX    TMP DP  RH WIND       PRES   REMARKS
SPRINGFIELD    PTCLDY    23  17  78 N6        30.36S WCI  16
JOPLIN         CLOUDY    23  18  81 N5        30.41S WCI  17

$$
MOZ032>034-039>042-045>050-055>058-069>072-221200-
...CENTRAL MISSOURI...

CITY           SKY/WX    TMP DP  RH WIND       PRES   REMARKS
COLUMBIA       NOT AVBL
JEFFERSON CITY PTCLDY    26  16  65 NW3       30.41S
ROLLA          CLOUDY    22  17  81 N6        30.37R WCI  14
SEDALIA        PTCLDY    22  19  89 NW5       30.42R WCI  16
WARRENSBURG    CLOUDY    23  16  74 NW5       30.42S WCI  17

$$
MOZ051-052-059>065-221200-
...EAST CENTRAL MISSOURI...

CITY           SKY/WX    TMP DP  RH WIND       PRES   REMARKS
ST LOUIS INTL  MOCLDY    26  19  74 NW8       30.38R WCI  18

$$
MOZ072>076-082>087-097>100-106>115-221200-
...SOUTH CENTRAL AND SOUTHEAST MISSOURI...

CITY           SKY/WX    TMP DP  RH WIND       PRES   REMARKS
CAPE GIRARDEAU CLOUDY    30  20  66 N13       30.35R WCI  20
POPLAR BLUFF   CLOUDY    31  20  63 N10       30.36R WCI  22
WEST PLAINS    PTCLDY    27  17  66 N8        30.34S WCI  19

$$



USA.gov is the U.S. government's official web portal to all federal, state and local government web resources and services.